SL-16 DEB, 22619

Orbit data source: Space-Track

SL-16 DEB, 22619 is space debris in LEO originally from a launch on Fri, 26 Mar 1993 UTC launched from the Tyuratam Missile And Space Complex (TTMTR). Debris objects in space refer to the collection of defunct objects orbiting the Earth. Examples of debris include non-operational satellites, rocket bodies, and fragments generated from explosions, collisions, or faulty payload assembly.

Loading next visibility...
SL-16 DEB details
Identifier
22619, 1993-016AD
Orbit
LEO
Last TLE update17 hours ago
Origin
Flag of CISRVSN RF (CIS)
ManufacturerUnknown
MissionSpacecraft
Bus & MotorUnknown
MassUnknown
Launch date (UTC)
1993-03-26 (32 years ago)
Launch vehicleUnknown
Launch site
Tyuratam Missile And Space Complex (TTMTR)
Object type
Payload
Rocket body
Debris
Shape & HBRUnknown
Radar Cross SectionMedium (>0.1 m² and <1 m²)

Expand to show TLE details & history

TLE from 17 hours ago
0 SL-16 DEB
1 22619U 93016AD  25023.93191656  .00000147  00000-0  17895-3 0  9996
2 22619  71.0003 160.0104 0184962 147.7701 351.3295 13.73808282595157
Epoch: 2025-01-23T22:21Z
Definitive object data (Epoch: 2025-01-23T22:21:57.59Z)
Latitude38.63739°
Longitude-134.87115°
Altitude856.162 km
Speed7.496 km/s
True Right ascension21h 36m 29s
True Declination38° 28' 19"
Sunlit
Object was in daylight at TLE epoch
Visualization TLE readout
Latitude-54.59869°
Longitude30.852°
Altitude1,128.403 km
Speed7.227 km/s
Apparent Right ascension06h 15m 00s
Apparent Declination-52° 53' 02"
Sunlit
Object is in daylight
Visualization observer readout
Local Sidereal Time16:08:37
Azimuth228.288° WSW
Elevation-64.944°
Doppler factor1
Orbital elements
Apogee altitude1,120.064 km
Perigee altitude847.725 km
Semi-major axis7,362.032 km
Eccentricity0.0184962
Inclination71.0003°
RAAN160.0104°
Arg. of periapsis147.7701°
True anomaly351.00252°
Mean anomaly351.3295°
Eccentric anomaly351.16677°
Mean motion3.43595 °/min
BSTAR0.00017895
Orbital period104.77 mins
Loading maneuver chart data...
Loading historical data...
Loading historical data...
Loading historical data...
Loading historical data...
Loading historical data...
Loading historical data...
Loading historical data...

SL-16 DEB Visibility forecast

Observer location: undefined°, undefined

Span
Click to sort rows by Start time (UTC) header in descending order
Start Az.
Max El. time (UTC)
Max El. Az.
Max El.
End time (UTC)
End Az.
10 mins2025-01-24 19:13:22.862Z353.187° N2025-01-24 19:18:22.862Z56.951° ENE30.341°2025-01-24 19:23:22.862Z123.989° SE
7 mins2025-01-24 21:02:22.862Z303.611° NW2025-01-24 21:05:22.862Z258.804° W26.438°2025-01-24 21:09:22.862Z203.409° SW
7 mins2025-01-25 08:47:22.862Z129.561° SE2025-01-25 08:50:22.862Z96.045° ESE19.271°2025-01-25 08:54:22.862Z56.116° ENE
11 mins2025-01-25 10:31:22.862Z215.953° SW2025-01-25 10:36:22.862Z274.982° WNW41.768°2025-01-25 10:42:22.862Z16.046° NNE
|